Flag for United Kingdom Weather past 2 weeks in Liverpool, England, United Kingdom

Now
81 °F

Scattered showers. Passing clouds.


Feels Like: 83 °F
Forecast: 60 / 66 °F
Wind: 7 mph from Southeast

Location: Liverpool Airport

Current Time: Jul 1, 2015 at 4:48:28 PM

Latest Report: Jul 1, 2015 at 4:20 PM


Visibility: N/A

Pressure: 29.77 "Hg

Humidity: 62%

Dew point: 66 °F

Location of LiverpoolLocation

Historic Weather in Liverpool — Graph

°F

Liverpool temperature yesterday

Maximum temperature yesterday: 82 °F (at 3:50 PM)
Minimum temperature yesterday: 61 °F (at 12:20 AM)
Average temperature yesterday: 71 °F

Past Weeks' High & Low Weather Summary

 TemperatureHumidityPressure
High82 °F (Jun 30, 3:50 PM)100% (Jun 17, 3:20 PM)30.24 "Hg (Jun 17, 3:20 PM)
Low50 °F (Jun 22, 5:50 AM)45% (Jun 30, 4:50 PM)29.80 "Hg (Jun 22, 7:50 AM)
Average61 °F77%30.06 "Hg
* Reported Jun 16 3:20 PM — Jul 1 3:20 PM, Liverpool, Weather by CustomWeather, © 2015

Note: Actual official high and low records may vary slightly from our data, if they occured in-between our weather recording intervals... More about our weather records

Advertising

Liverpool weather history for previous 24 hours

 ConditionsComfort  
Time TempWeatherWind HumidityBarometerVisibility
3:20 PM
Wed, Jul 1
79 °FPassing clouds.8 mph61%29.80 "HgN/A
2:50 PM81 °FSunny.12 mph58%29.80 "Hg10 mi
2:20 PM81 °FSunny.9 mph58%29.83 "Hg10 mi
1:50 PM79 °FSunny.3 mph65%29.83 "Hg10 mi
1:20 PM79 °FPassing clouds.6 mph61%29.83 "HgN/A
12:50 PM77 °FPassing clouds.8 mph65%29.80 "HgN/A
12:20 PM75 °FSunny.10 mph65%29.83 "Hg10 mi
11:50 AM77 °FPassing clouds.9 mph61%29.83 "HgN/A
11:20 AM77 °FSunny.9 mph61%29.83 "Hg10 mi
10:50 AM77 °FSunny.12 mph57%29.83 "Hg10 mi
10:20 AM77 °FSunny.13 mph57%29.83 "Hg10 mi
9:50 AM77 °FSunny.13 mph57%29.83 "Hg10 mi
9:20 AM75 °FSunny.9 mph61%29.83 "Hg10 mi
8:50 AM72 °FSunny.6 mph69%29.83 "Hg10 mi
8:20 AM72 °FSunny.9 mph69%29.83 "Hg10 mi
7:50 AM70 °FSunny.9 mph69%29.86 "Hg10 mi
7:20 AM68 °FSunny.8 mph69%29.86 "Hg10 mi
6:50 AM68 °FSunny.7 mph69%29.86 "Hg10 mi
6:20 AM68 °FSunny.8 mph69%29.86 "Hg10 mi
5:50 AM64 °FSunny.8 mph78%29.86 "Hg10 mi
5:20 AM66 °FClear.8 mph73%29.89 "Hg10 mi
4:50 AM64 °FClear.6 mph78%29.89 "Hg10 mi
4:20 AM66 °FClear.9 mph73%29.89 "Hg10 mi
3:50 AM66 °FClear.9 mph73%29.89 "Hg10 mi
3:20 AM66 °FClear.9 mph78%29.89 "Hg10 mi
2:50 AM66 °FClear.10 mph78%29.92 "Hg10 mi
2:20 AM66 °FClear.7 mph78%29.92 "Hg10 mi
1:50 AM66 °FClear.8 mph78%29.92 "Hg10 mi
1:20 AM68 °FClear.9 mph69%29.92 "Hg10 mi
12:50 AM68 °FClear.9 mph69%29.92 "Hg10 mi
12:20 AM70 °FClear.10 mph64%29.92 "Hg10 mi
11:50 PM
Tue, Jun 30
70 °FClear.12 mph64%29.92 "Hg10 mi
11:20 PM72 °FClear.10 mph65%29.92 "Hg10 mi
10:50 PM72 °FClear.12 mph61%29.92 "Hg10 mi
10:20 PM73 °FSunny.12 mph57%29.92 "Hg10 mi
9:50 PM72 °FSunny.12 mph65%29.95 "Hg10 mi
9:20 PM75 °FSunny.9 mph57%29.92 "Hg10 mi
8:50 PM77 °FSunny.8 mph57%29.92 "Hg10 mi
8:20 PM79 °FSunny.8 mph51%29.95 "Hg10 mi
7:50 PM79 °FSunny.9 mph54%29.95 "Hg10 mi
7:20 PM81 °FSunny.12 mph48%29.95 "Hg10 mi
6:50 PM81 °FSunny.13 mph48%29.95 "Hg10 mi
5:50 PM82 °FSunny.13 mph45%29.95 "Hg10 mi
5:20 PM82 °FSunny.13 mph45%29.95 "Hg10 mi
4:50 PM82 °FPassing clouds.12 mph45%29.98 "HgN/A
Weather by CustomWeather, © 2015

See weather overviewHow to use our weather pages